Weather History for Ambler, AK

Change the Weather History Date:

Tuesday, May 6, 2014

  Actual Average Record
Temperature  
Mean Temperature 34 °F -  
Max Temperature 39 °F 35 °F 51 °F (1988)
Min Temperature 30 °F 24 °F 3 °F (2001)
Degree Days  
Heating Degree Days 30    
Moisture  
Dew Point 20 °F    
Average Humidity 57    
Maximum Humidity 81    
Minimum Humidity 48    
Precipitation  
Precipitation 0.00 in - - ()
Sea Level Pressure  
Sea Level Pressure 29.73 in    
Wind  
Wind Speed 3 mph (West)    
Max Wind Speed 10 mph    
Max Gust Speed 16 mph    
Visibility 10 miles    
Events      
Averages and records for this station are not official NWS values.
T = Trace of Precipitation, MM = Missing Value Source: NWS Daily Summary

Daily Weather History Graph

Daily Weather History Graph

Search for Another Location

Airport:

Trip Planner

Search our weather history database for the weather conditions in past years. The results will help you decide how hot, cold, wet, or windy it might be!

Date:

Astronomy

May. 06, 2014 Rise Set
Actual Time 5:15 AM AKDT 11:44 PM AKDT
Civil Twilight 3:07 AM AKDT 2:13 AM AKDT
Nautical Twilight Sun does not rise Sun does not rise
Astronomical Twilight Sun does not rise Sun does not rise
Moon 12:30 PM AKDT (5/6) 4:25 AM AKDT (5/6)
Length of Visible Light 23h 06m
Length of Day
18h 28m
Waxing Crescent, 47% of the Moon is Illuminated
May 6
Waxing Crescent
May 6
First Quarter
May 14
Full
May 21
Last Quarter
May 28
New

Hourly Weather History & Observations

Time (AKDT) Temp. Windchill Dew Point Humidity Pressure Visibility Wind Dir Wind Speed Gust Speed Precip Events Conditions
3:56 AM 32.0 °F - 15.8 °F 51% 29.80 in 10.0 mi Calm Calm - N/A   Overcast
4:16 AM 32.0 °F - 15.8 °F 51% 29.80 in 10.0 mi Calm Calm - N/A   Scattered Clouds
4:36 AM 30.2 °F - 15.8 °F 55% 29.80 in 10.0 mi Calm Calm - N/A   Partly Cloudy
4:56 AM 30.2 °F - 15.8 °F 55% 29.79 in 10.0 mi Calm Calm - N/A   Mostly Cloudy
5:16 AM 30.2 °F 26.7 °F 15.8 °F 55% 29.79 in 10.0 mi ENE 3.5 mph - N/A   Overcast
5:56 AM 30.2 °F 26.7 °F 15.8 °F 55% 29.77 in 10.0 mi East 3.5 mph - N/A   Overcast
6:16 AM 30.2 °F - 15.8 °F 55% 29.77 in 10.0 mi Calm Calm - N/A   Overcast
6:36 AM 30.2 °F - 15.8 °F 55% 29.76 in 10.0 mi Calm Calm - N/A   Overcast
6:56 AM 30.2 °F - 15.8 °F 55% 29.76 in 10.0 mi Calm Calm - N/A   Overcast
7:16 AM 32.0 °F - 17.6 °F 55% 29.75 in 10.0 mi Calm Calm - N/A   Overcast
7:36 AM 32.0 °F - 15.8 °F 51% 29.74 in 10.0 mi Calm Calm - N/A   Overcast
7:56 AM 32.0 °F - 15.8 °F 51% 29.74 in 10.0 mi Calm Calm - N/A   Overcast
8:16 AM 32.0 °F - 15.8 °F 51% 29.73 in 10.0 mi Calm Calm - N/A   Overcast
8:36 AM 33.8 °F - 17.6 °F 52% 29.73 in 10.0 mi Calm Calm - N/A   Overcast
8:56 AM 33.8 °F - 17.6 °F 52% 29.72 in 10.0 mi Calm Calm - N/A   Mostly Cloudy
9:16 AM 35.6 °F 28.0 °F 17.6 °F 48% 29.72 in 10.0 mi SSE 10.4 mph - N/A   Overcast
9:36 AM 35.6 °F 29.9 °F 17.6 °F 48% 29.71 in 10.0 mi SSE 6.9 mph 16.1 mph N/A   Overcast
9:56 AM 35.6 °F 29.2 °F 17.6 °F 48% 29.71 in 10.0 mi SSE 8.1 mph - N/A   Overcast
10:16 AM 35.6 °F 32.8 °F 19.4 °F 52% 29.71 in 10.0 mi SW 3.5 mph - N/A   Overcast
10:36 AM 35.6 °F 31.7 °F 19.4 °F 52% 29.71 in 10.0 mi South 4.6 mph - N/A   Mostly Cloudy
10:56 AM 35.6 °F 29.2 °F 19.4 °F 52% 29.71 in 10.0 mi SSW 8.1 mph - N/A   Overcast
11:16 AM 35.6 °F 30.7 °F 19.4 °F 52% 29.71 in 10.0 mi SSW 5.8 mph - N/A   Overcast
11:36 AM 35.6 °F 29.9 °F 19.4 °F 52% 29.71 in 10.0 mi SW 6.9 mph - N/A   Overcast
11:56 AM 35.6 °F 30.7 °F 19.4 °F 52% 29.71 in 10.0 mi West 5.8 mph - N/A   Overcast
12:16 PM 35.6 °F 32.8 °F 21.2 °F 56% 29.71 in 10.0 mi West 3.5 mph - N/A   Overcast
12:36 PM 35.6 °F 30.7 °F 21.2 °F 56% 29.71 in 10.0 mi West 5.8 mph - N/A   Overcast
12:56 PM 35.6 °F 30.7 °F 21.2 °F 56% 29.71 in 10.0 mi WSW 5.8 mph - N/A   Overcast
1:16 PM 35.6 °F 30.7 °F 21.2 °F 56% 29.71 in 10.0 mi West 5.8 mph - N/A   Overcast
1:36 PM 33.8 °F 27.0 °F 24.8 °F 70% 29.72 in 8.0 mi WNW 8.1 mph - N/A   Overcast
1:56 PM 33.8 °F 27.0 °F 26.6 °F 75% 29.72 in 5.0 mi WNW 8.1 mph - N/A   Overcast
2:16 PM 33.8 °F 28.6 °F 28.4 °F 81% 29.72 in 2.5 mi West 5.8 mph - N/A   Overcast
2:36 PM 33.8 °F 28.6 °F 26.6 °F 75% 29.72 in 5.0 mi West 5.8 mph - N/A   Overcast
2:56 PM 33.8 °F 29.6 °F 26.6 °F 75% 29.72 in 10.0 mi West 4.6 mph - N/A   Overcast
3:16 PM 35.6 °F 31.7 °F 26.6 °F 70% 29.72 in 10.0 mi West 4.6 mph - N/A   Overcast
3:36 PM 35.6 °F 29.9 °F 24.8 °F 65% 29.72 in 6.0 mi West 6.9 mph - N/A   Overcast
3:56 PM 35.6 °F 30.7 °F 24.8 °F 65% 29.72 in 10.0 mi WSW 5.8 mph - N/A   Overcast
4:16 PM 35.6 °F 29.9 °F 24.8 °F 65% 29.72 in 10.0 mi West 6.9 mph - N/A   Overcast
4:36 PM 35.6 °F 29.2 °F 24.8 °F 65% 29.72 in 10.0 mi West 8.1 mph - N/A   Mostly Cloudy
4:56 PM 35.6 °F 30.7 °F 24.8 °F 65% 29.72 in 10.0 mi West 5.8 mph - N/A   Overcast
5:16 PM 35.6 °F 31.7 °F 23.0 °F 60% 29.72 in 10.0 mi West 4.6 mph - N/A   Mostly Cloudy
5:36 PM 37.4 °F 33.8 °F 24.8 °F 60% 29.71 in 10.0 mi West 4.6 mph - N/A   Overcast
5:56 PM 37.4 °F 32.1 °F 21.2 °F 52% 29.71 in 10.0 mi WSW 6.9 mph - N/A   Mostly Cloudy
6:16 PM 39.2 °F 35.0 °F 23.0 °F 52% 29.71 in 10.0 mi West 5.8 mph - N/A   Mostly Cloudy
6:36 PM 39.2 °F 35.0 °F 23.0 °F 52% 29.71 in 10.0 mi West 5.8 mph - N/A   Overcast
6:56 PM 37.4 °F 33.8 °F 21.2 °F 52% 29.72 in 10.0 mi West 4.6 mph - N/A   Overcast
7:16 PM 37.4 °F 33.8 °F 23.0 °F 56% 29.72 in 10.0 mi West 4.6 mph - N/A   Overcast
7:36 PM 35.6 °F - 23.0 °F 60% 29.72 in 10.0 mi Calm Calm - N/A   Overcast
7:56 PM 35.6 °F - 21.2 °F 56% 29.72 in 10.0 mi Calm Calm - N/A   Mostly Cloudy
8:16 PM 37.4 °F 34.9 °F 23.0 °F 56% 29.72 in 10.0 mi WNW 3.5 mph - N/A   Overcast
8:36 PM 37.4 °F 32.8 °F 21.2 °F 52% 29.72 in 10.0 mi NW 5.8 mph - N/A   Mostly Cloudy
8:56 PM 35.6 °F 30.7 °F 21.2 °F 56% 29.72 in 10.0 mi NW 5.8 mph - N/A   Overcast
9:16 PM 35.6 °F 32.8 °F 21.2 °F 56% 29.73 in 10.0 mi West 3.5 mph - N/A   Overcast
9:36 PM 35.6 °F 29.9 °F 21.2 °F 56% 29.73 in 10.0 mi WNW 6.9 mph - N/A   Mostly Cloudy
10:16 PM 35.6 °F 30.7 °F 19.4 °F 52% 29.73 in 10.0 mi WNW 5.8 mph - N/A   Clear
10:36 PM 33.8 °F 28.6 °F 19.4 °F 56% 29.73 in 10.0 mi WNW 5.8 mph - N/A   Clear
10:56 PM 33.8 °F 30.8 °F 19.4 °F 56% 29.74 in 10.0 mi WNW 3.5 mph - N/A   Clear
11:16 PM 33.8 °F 30.8 °F 19.4 °F 56% 29.74 in 10.0 mi WNW 3.5 mph - N/A   Clear
11:36 PM 30.2 °F 25.4 °F 19.4 °F 64% 29.74 in 10.0 mi NW 4.6 mph - N/A   Clear
11:56 PM 30.2 °F 26.7 °F 19.4 °F 64% 29.74 in 10.0 mi WNW 3.5 mph - N/A   Clear